Location: Unspecified
(49.2170°N, 0.0000°E)
Time: 21:44:38
(UTC+00:00)

deb Explorer IX - All Passes

Search period start: 20 June 2019 00:00
Search period end: 30 June 2019 00:00
Orbit: 537 x 1115 km, 38.8° (Epoch: 19 June)

Date Brightness Start Highest point End Pass type
(mag) Time Alt. Az. Time Alt. Az. Time Alt. Az.
20 Jun - 14:06:07 10° SSW 14:11:31 22° SSE 14:16:54 10° ESE daylight
20 Jun - 15:51:27 10° SW 15:57:58 35° S 16:04:14 10° ESE daylight
20 Jun - 17:38:14 10° WSW 17:44:34 33° SSW 17:50:27 10° SE daylight
20 Jun - 19:26:14 10° WSW 19:30:45 18° SSW 19:34:57 10° S daylight
21 Jun - 13:44:10 10° SSW 13:49:33 23° SSE 13:55:00 10° ESE daylight
21 Jun - 15:29:28 10° SW 15:36:00 35° S 15:42:22 10° ESE daylight
21 Jun - 17:16:14 10° WSW 17:22:38 33° SSW 17:28:38 10° SE daylight
21 Jun - 19:04:12 10° WSW 19:08:50 19° SSW 19:13:10 10° SSE daylight
22 Jun - 13:22:13 10° SSW 13:27:36 23° SSE 13:33:04 10° ESE daylight
22 Jun - 15:07:31 10° SW 15:14:02 35° S 15:20:29 10° ESE daylight
22 Jun - 16:54:14 10° WSW 17:00:40 33° SSW 17:06:47 10° SE daylight
22 Jun - 18:42:11 10° WSW 18:46:54 19° SSW 18:51:21 10° SSE daylight
23 Jun - 13:00:18 10° SSW 13:05:38 23° SSE 13:11:08 10° ESE daylight
23 Jun - 14:45:34 10° SW 14:52:04 35° S 14:58:33 10° ESE daylight
23 Jun - 16:32:16 10° WSW 16:38:42 33° SSW 16:44:55 10° SE daylight
23 Jun - 18:20:11 10° WSW 18:24:57 19° SSW 18:29:31 10° SSE daylight
24 Jun - 12:38:24 10° SSW 12:43:40 23° SSE 12:49:09 10° ESE daylight
24 Jun - 14:23:39 10° SW 14:30:05 35° S 14:36:37 10° ESE daylight
24 Jun - 16:10:18 10° WSW 16:16:43 33° SSW 16:23:01 10° SE daylight
24 Jun - 17:58:11 10° WSW 18:03:00 19° SSW 18:07:38 10° SSE daylight
25 Jun - 12:16:31 10° SSW 12:21:43 23° SSE 12:27:10 10° ESE daylight
25 Jun - 14:01:45 10° SW 14:08:06 35° S 14:14:40 10° ESE daylight
25 Jun - 15:48:21 10° WSW 15:54:45 33° SSW 16:01:05 10° SE daylight
25 Jun - 17:36:13 10° WSW 17:41:02 19° SSW 17:45:44 10° SSE daylight
26 Jun - 11:54:40 10° SSW 11:59:44 23° SSE 12:05:09 10° ESE daylight
26 Jun - 13:39:51 10° SW 13:46:07 35° S 13:52:41 10° ESE daylight
26 Jun - 15:26:25 10° WSW 15:32:46 33° SSW 15:39:08 10° SE daylight
26 Jun - 17:14:14 10° WSW 17:19:04 19° SSW 17:23:47 10° S daylight
27 Jun - 11:32:50 10° SSW 11:37:47 23° SSE 11:43:07 10° ESE daylight
27 Jun - 13:17:59 10° SW 13:24:08 35° S 13:30:41 10° ESE daylight
27 Jun - 15:04:30 10° WSW 15:10:47 33° SSW 15:17:10 10° SE daylight
27 Jun - 16:52:18 10° WSW 16:57:05 19° SSW 17:01:50 10° S daylight
28 Jun - 11:11:01 10° SSW 11:15:51 22° SSE 11:21:04 10° ESE daylight
28 Jun - 12:56:08 10° SW 13:02:11 35° S 13:08:39 10° ESE daylight
28 Jun - 14:42:37 10° WSW 14:48:47 32° SSW 14:55:11 10° SE daylight
28 Jun - 16:30:23 10° WSW 16:35:07 18° SSW 16:39:50 10° S daylight
29 Jun - 10:49:13 10° SSW 10:53:54 22° SSE 10:59:01 10° ESE daylight
29 Jun - 12:34:18 10° SW 12:40:12 34° S 12:46:37 10° ESE daylight
29 Jun - 14:20:44 10° WSW 14:26:48 32° SSW 14:33:09 10° SE daylight
29 Jun - 16:08:28 10° WSW 16:13:08 18° SSW 16:17:48 10° S daylight
